Year,Month,Day,Hour,Minute,Value (Times are PST for temperature in C)
2011,06,16,00,00,9.30
2011,06,16,00,01,9.20
2011,06,16,00,02,9.20
2011,06,16,00,03,9.20
2011,06,16,00,04,9.20
2011,06,16,00,05,9.20
2011,06,16,00,06,9.20
2011,06,16,00,07,9.20
2011,06,16,00,08,9.20
2011,06,16,00,09,9.20
2011,06,16,00,10,9.20
2011,06,16,00,11,9.30
2011,06,16,00,12,9.30
2011,06,16,00,13,9.30
2011,06,16,00,14,9.30
2011,06,16,00,15,9.30
2011,06,16,00,16,9.30
2011,06,16,00,17,9.30
2011,06,16,00,18,9.30
2011,06,16,00,19,9.30
2011,06,16,00,20,9.30
2011,06,16,00,21,9.40
2011,06,16,00,22,9.40
2011,06,16,00,23,9.40
2011,06,16,00,24,9.40
2011,06,16,00,25,9.40
2011,06,16,00,26,9.40
2011,06,16,00,27,9.40
2011,06,16,00,28,9.40
2011,06,16,00,29,9.50
2011,06,16,00,30,9.50
2011,06,16,00,31,9.50
2011,06,16,00,32,9.50
2011,06,16,00,33,9.50
2011,06,16,00,34,9.50
2011,06,16,00,35,9.60
2011,06,16,00,36,9.60
2011,06,16,00,37,9.60
2011,06,16,00,38,9.70
2011,06,16,00,39,9.70
2011,06,16,00,40,9.70
2011,06,16,00,41,9.70
2011,06,16,00,42,9.70
2011,06,16,00,43,9.70
2011,06,16,00,44,9.80
2011,06,16,00,45,9.80
2011,06,16,00,46,9.80
2011,06,16,00,47,9.80
2011,06,16,00,48,9.70
2011,06,16,00,49,9.70
2011,06,16,00,50,9.70
2011,06,16,00,51,9.70
2011,06,16,00,52,9.70
2011,06,16,00,53,9.70
2011,06,16,00,54,9.70
2011,06,16,00,55,9.70
2011,06,16,00,56,9.70
2011,06,16,00,57,9.70
2011,06,16,00,58,9.80
2011,06,16,00,59,9.80
2011,06,16,01,00,9.80
2011,06,16,01,01,9.80
2011,06,16,01,02,9.80
2011,06,16,01,03,9.80
2011,06,16,01,04,9.90
2011,06,16,01,05,9.90
2011,06,16,01,06,9.90
2011,06,16,01,07,9.90
2011,06,16,01,08,9.90
2011,06,16,01,09,9.90
2011,06,16,01,10,9.90
2011,06,16,01,11,9.90
2011,06,16,01,12,9.90
2011,06,16,01,13,9.90
2011,06,16,01,14,9.90
2011,06,16,01,15,9.90
2011,06,16,01,16,9.90
2011,06,16,01,17,9.90
2011,06,16,01,18,9.90
2011,06,16,01,19,9.90
2011,06,16,01,20,9.90
2011,06,16,01,21,9.90
2011,06,16,01,22,10.00
2011,06,16,01,23,10.00
2011,06,16,01,24,9.90
2011,06,16,01,25,9.90
2011,06,16,01,26,9.90
2011,06,16,01,27,9.90
2011,06,16,01,28,10.00
2011,06,16,01,29,10.00
2011,06,16,01,30,10.00
2011,06,16,01,31,10.10
2011,06,16,01,32,10.10
2011,06,16,01,33,10.10
2011,06,16,01,34,10.10
2011,06,16,01,35,10.10
2011,06,16,01,36,10.10
2011,06,16,01,37,10.00
2011,06,16,01,38,10.00
2011,06,16,01,39,10.00
2011,06,16,01,40,10.00
2011,06,16,01,41,10.00
2011,06,16,01,42,10.00
2011,06,16,01,43,10.10
2011,06,16,01,44,10.00
2011,06,16,01,45,10.00
2011,06,16,01,46,10.00
2011,06,16,01,47,10.00
2011,06,16,01,48,9.90
2011,06,16,01,49,9.90
2011,06,16,01,50,9.90
2011,06,16,01,51,9.90
2011,06,16,01,52,9.90
2011,06,16,01,53,9.90
2011,06,16,01,54,9.90
2011,06,16,01,55,9.90
2011,06,16,01,56,9.90
2011,06,16,01,57,9.90
2011,06,16,01,58,9.90
2011,06,16,01,59,9.90
2011,06,16,02,00,9.90
2011,06,16,02,01,9.90
2011,06,16,02,02,9.90
2011,06,16,02,03,9.90
2011,06,16,02,04,9.90
2011,06,16,02,05,9.90
2011,06,16,02,06,9.90
2011,06,16,02,07,9.90
2011,06,16,02,08,9.90
2011,06,16,02,09,9.90
2011,06,16,02,10,9.90
2011,06,16,02,11,9.90
2011,06,16,02,12,9.90
2011,06,16,02,13,9.90
2011,06,16,02,14,9.90
2011,06,16,02,15,9.90
2011,06,16,02,16,9.90
2011,06,16,02,17,9.90
2011,06,16,02,18,9.90
2011,06,16,02,19,9.90
2011,06,16,02,20,9.90
2011,06,16,02,21,9.90
2011,06,16,02,22,9.90
2011,06,16,02,23,9.90
2011,06,16,02,24,9.90
2011,06,16,02,25,9.90
2011,06,16,02,26,9.90
2011,06,16,02,27,9.90
2011,06,16,02,28,9.90
2011,06,16,02,29,9.90
2011,06,16,02,30,9.90
2011,06,16,02,31,9.90
2011,06,16,02,32,9.90
2011,06,16,02,33,9.80
2011,06,16,02,34,9.80
2011,06,16,02,35,9.80
2011,06,16,02,36,9.80
2011,06,16,02,37,9.80
2011,06,16,02,38,9.80
2011,06,16,02,39,9.70
2011,06,16,02,40,9.70
2011,06,16,02,41,9.70
2011,06,16,02,42,9.70
2011,06,16,02,43,9.60
2011,06,16,02,44,9.60
2011,06,16,02,45,9.50
2011,06,16,02,46,9.50
2011,06,16,02,47,9.40
2011,06,16,02,48,9.40
2011,06,16,02,49,9.30
2011,06,16,02,50,9.30
2011,06,16,02,51,9.30
2011,06,16,02,52,9.20
2011,06,16,02,53,9.20
2011,06,16,02,54,9.10
2011,06,16,02,55,9.10
2011,06,16,02,56,9.10
2011,06,16,02,57,9.10
2011,06,16,02,58,9.10
2011,06,16,02,59,9.10
2011,06,16,03,00,9.10
2011,06,16,03,01,9.10
2011,06,16,03,02,9.10
2011,06,16,03,03,9.10
2011,06,16,03,04,9.10
2011,06,16,03,05,9.10
2011,06,16,03,06,9.10
2011,06,16,03,07,9.10
2011,06,16,03,08,9.20
2011,06,16,03,09,9.20
2011,06,16,03,10,9.20
2011,06,16,03,11,9.20
2011,06,16,03,12,9.20
2011,06,16,03,13,9.20
2011,06,16,03,14,9.30
2011,06,16,03,15,9.30
2011,06,16,03,16,9.30
2011,06,16,03,17,9.20
2011,06,16,03,18,9.20
2011,06,16,03,19,9.20
2011,06,16,03,20,9.10
2011,06,16,03,21,9.10
2011,06,16,03,22,9.00
2011,06,16,03,23,9.00
2011,06,16,03,24,8.90
2011,06,16,03,25,8.90
2011,06,16,03,26,8.90
2011,06,16,03,27,8.90
2011,06,16,03,28,8.80
2011,06,16,03,29,8.80
2011,06,16,03,30,8.80
2011,06,16,03,31,8.70
2011,06,16,03,32,8.70
2011,06,16,03,33,8.70
2011,06,16,03,34,8.70
2011,06,16,03,35,8.70
2011,06,16,03,36,8.70
2011,06,16,03,37,8.70
2011,06,16,03,38,8.70
2011,06,16,03,39,8.70
2011,06,16,03,40,8.70
2011,06,16,03,41,8.70
2011,06,16,03,42,8.70
2011,06,16,03,43,8.70
2011,06,16,03,44,8.70
2011,06,16,03,45,8.70
2011,06,16,03,46,8.80
2011,06,16,03,47,8.80
2011,06,16,03,48,8.80
2011,06,16,03,49,8.80
2011,06,16,03,50,8.80
2011,06,16,03,51,8.80
2011,06,16,03,52,8.80
2011,06,16,03,53,8.80
2011,06,16,03,54,8.80
2011,06,16,03,55,8.80
2011,06,16,03,56,8.80
2011,06,16,03,57,8.80
2011,06,16,03,58,8.90
2011,06,16,03,59,8.90
2011,06,16,04,00,8.90
2011,06,16,04,01,8.90
2011,06,16,04,02,9.00
2011,06,16,04,03,9.00
2011,06,16,04,04,9.00
2011,06,16,04,05,9.00
2011,06,16,04,06,9.00
2011,06,16,04,07,9.00
2011,06,16,04,08,9.00
2011,06,16,04,09,9.00
2011,06,16,04,10,9.00
2011,06,16,04,11,9.00
2011,06,16,04,12,9.10
2011,06,16,04,13,9.10
2011,06,16,04,14,9.10
2011,06,16,04,15,9.10
2011,06,16,04,16,9.10
2011,06,16,04,17,9.10
2011,06,16,04,18,9.10
2011,06,16,04,19,9.20
2011,06,16,04,20,9.20
2011,06,16,04,21,9.20
2011,06,16,04,22,9.20
2011,06,16,04,23,9.20
2011,06,16,04,24,9.20
2011,06,16,04,25,9.20
2011,06,16,04,26,9.20
2011,06,16,04,27,9.30
2011,06,16,04,28,9.30
2011,06,16,04,29,9.30
2011,06,16,04,30,9.40
2011,06,16,04,31,9.40
2011,06,16,04,32,9.40
2011,06,16,04,33,9.40
2011,06,16,04,34,9.50
2011,06,16,04,35,9.50
2011,06,16,04,36,9.60
2011,06,16,04,37,9.60
2011,06,16,04,38,9.70
2011,06,16,04,39,9.70
2011,06,16,04,40,9.70
2011,06,16,04,41,9.70
2011,06,16,04,42,9.70
2011,06,16,04,43,9.70
2011,06,16,04,44,9.70
2011,06,16,04,45,9.70
2011,06,16,04,46,9.70
2011,06,16,04,47,9.70
2011,06,16,04,48,9.70
2011,06,16,04,49,9.70
2011,06,16,04,50,9.80
2011,06,16,04,51,9.80
2011,06,16,04,52,9.80
2011,06,16,04,53,9.70
2011,06,16,04,54,9.70
2011,06,16,04,55,9.70
2011,06,16,04,56,9.70
2011,06,16,04,57,9.80
2011,06,16,04,58,9.80
2011,06,16,04,59,9.80
2011,06,16,05,00,9.80
2011,06,16,05,01,9.80
2011,06,16,05,02,9.80
2011,06,16,05,03,9.80
2011,06,16,05,04,9.80
2011,06,16,05,05,9.80
2011,06,16,05,06,9.90
2011,06,16,05,07,9.90
2011,06,16,05,08,9.90
2011,06,16,05,09,9.90
2011,06,16,05,10,9.90
2011,06,16,05,11,9.90
2011,06,16,05,12,9.90
2011,06,16,05,13,9.90
2011,06,16,05,14,9.90
2011,06,16,05,15,9.90
2011,06,16,05,16,9.90
2011,06,16,05,17,9.90
2011,06,16,05,18,9.80
2011,06,16,05,19,9.80
2011,06,16,05,20,9.80
2011,06,16,05,21,9.80
2011,06,16,05,22,9.70
2011,06,16,05,23,9.70
2011,06,16,05,24,9.70
2011,06,16,05,25,9.70
2011,06,16,05,26,9.70
2011,06,16,05,27,9.60
2011,06,16,05,28,9.60
2011,06,16,05,29,9.60
2011,06,16,05,30,9.60
2011,06,16,05,31,9.60
2011,06,16,05,32,9.60
2011,06,16,05,33,9.50
2011,06,16,05,34,9.50
2011,06,16,05,35,9.50
2011,06,16,05,36,9.50
2011,06,16,05,37,9.40
2011,06,16,05,38,9.40
2011,06,16,05,39,9.40
2011,06,16,05,40,9.40
2011,06,16,05,41,9.40
2011,06,16,05,42,9.40
2011,06,16,05,43,9.40
2011,06,16,05,44,9.40
2011,06,16,05,45,9.30
2011,06,16,05,46,9.30
2011,06,16,05,47,9.30
2011,06,16,05,48,9.30
2011,06,16,05,49,9.30
2011,06,16,05,50,9.30
2011,06,16,05,51,9.30
2011,06,16,05,52,9.20
2011,06,16,05,53,9.20
2011,06,16,05,54,9.20
2011,06,16,05,55,9.20
2011,06,16,05,56,9.20
2011,06,16,05,57,9.20
2011,06,16,05,58,9.30
2011,06,16,05,59,9.30
2011,06,16,06,00,9.30
2011,06,16,06,01,9.30
2011,06,16,06,02,9.30
2011,06,16,06,03,9.30
2011,06,16,06,04,9.40
2011,06,16,06,05,9.40
2011,06,16,06,06,9.40
2011,06,16,06,07,9.50
2011,06,16,06,08,9.50
2011,06,16,06,09,9.50
2011,06,16,06,10,9.50
2011,06,16,06,11,9.60
2011,06,16,06,12,9.60
2011,06,16,06,13,9.60
2011,06,16,06,14,9.60
2011,06,16,06,15,9.60
2011,06,16,06,16,9.60
2011,06,16,06,17,9.60
2011,06,16,06,18,9.60
2011,06,16,06,19,9.60
2011,06,16,06,20,9.60
2011,06,16,06,21,9.70
2011,06,16,06,22,9.70
2011,06,16,06,23,9.70
2011,06,16,06,24,9.70
2011,06,16,06,25,9.70
2011,06,16,06,26,9.70
2011,06,16,06,27,9.70
2011,06,16,06,28,9.80
2011,06,16,06,29,9.80
2011,06,16,06,30,9.80
2011,06,16,06,31,9.80
2011,06,16,06,32,9.80
2011,06,16,06,33,9.90
2011,06,16,06,34,9.90
2011,06,16,06,35,10.00
2011,06,16,06,36,10.00
2011,06,16,06,37,10.10
2011,06,16,06,38,10.10
2011,06,16,06,39,10.10
2011,06,16,06,40,10.20
2011,06,16,06,41,10.20
2011,06,16,06,42,10.30
2011,06,16,06,43,10.30
2011,06,16,06,44,10.40
2011,06,16,06,45,10.40
2011,06,16,06,46,10.50
2011,06,16,06,47,10.60
2011,06,16,06,48,10.70
2011,06,16,06,49,10.70
2011,06,16,06,50,10.80
2011,06,16,06,51,10.90
2011,06,16,06,52,10.90
2011,06,16,06,53,11.00
2011,06,16,06,54,11.10
2011,06,16,06,55,11.10
2011,06,16,06,56,11.20
2011,06,16,06,57,11.30
2011,06,16,06,58,11.30
2011,06,16,06,59,11.40
2011,06,16,07,00,11.50
2011,06,16,07,01,11.60
2011,06,16,07,02,11.60
2011,06,16,07,03,11.70
2011,06,16,07,04,11.80
2011,06,16,07,05,11.90
2011,06,16,07,06,11.90
2011,06,16,07,07,12.00
2011,06,16,07,08,12.10
2011,06,16,07,09,12.20
2011,06,16,07,10,12.20
2011,06,16,07,11,12.30
2011,06,16,07,12,12.40
2011,06,16,07,13,12.50
2011,06,16,07,14,12.50
2011,06,16,07,15,12.60
2011,06,16,07,16,12.70
2011,06,16,07,17,12.80
2011,06,16,07,18,12.90
2011,06,16,07,19,12.90
2011,06,16,07,20,13.00
2011,06,16,07,21,13.10
2011,06,16,07,22,13.10
2011,06,16,07,23,13.20
2011,06,16,07,24,13.20
2011,06,16,07,25,13.20
2011,06,16,07,26,13.30
2011,06,16,07,27,13.30
2011,06,16,07,28,13.40
2011,06,16,07,29,13.50
2011,06,16,07,30,13.50
2011,06,16,07,31,13.60
2011,06,16,07,32,13.70
2011,06,16,07,33,13.80
2011,06,16,07,34,13.90
2011,06,16,07,35,14.00
2011,06,16,07,36,14.10
2011,06,16,07,37,14.10
2011,06,16,07,38,14.20
2011,06,16,07,39,14.20
2011,06,16,07,40,14.20
2011,06,16,07,41,14.30
2011,06,16,07,42,14.20
2011,06,16,07,43,14.20
2011,06,16,07,44,14.10
2011,06,16,07,45,14.10
2011,06,16,07,46,14.10
2011,06,16,07,47,14.00
2011,06,16,07,48,14.00
2011,06,16,07,49,14.10
2011,06,16,07,50,14.10
2011,06,16,07,51,14.20
2011,06,16,07,52,14.20
2011,06,16,07,53,14.20
2011,06,16,07,54,14.20
2011,06,16,07,55,14.20
2011,06,16,07,56,14.20
2011,06,16,07,57,14.30
2011,06,16,07,58,14.40
2011,06,16,07,59,14.40
2011,06,16,08,00,14.50
2011,06,16,08,01,14.50
2011,06,16,08,02,14.50
2011,06,16,08,03,14.50
2011,06,16,08,04,14.40
2011,06,16,08,05,14.40
2011,06,16,08,06,14.40
2011,06,16,08,07,14.50
2011,06,16,08,08,14.60
2011,06,16,08,09,14.70
2011,06,16,08,10,14.70
2011,06,16,08,11,14.80
2011,06,16,08,12,15.00
2011,06,16,08,13,15.00
2011,06,16,08,14,15.00
2011,06,16,08,15,15.10
2011,06,16,08,16,15.20
2011,06,16,08,17,15.10
2011,06,16,08,18,15.00
2011,06,16,08,19,15.00
2011,06,16,08,20,15.00
2011,06,16,08,21,15.10
2011,06,16,08,22,15.20
2011,06,16,08,23,15.30
2011,06,16,08,24,15.30
2011,06,16,08,25,15.30
2011,06,16,08,26,15.20
2011,06,16,08,27,15.20
2011,06,16,08,28,15.20
2011,06,16,08,29,15.30
2011,06,16,08,30,15.30
2011,06,16,08,31,15.40
2011,06,16,08,32,15.50
2011,06,16,08,33,15.60
2011,06,16,08,34,15.70
2011,06,16,08,35,15.70
2011,06,16,08,36,15.70
2011,06,16,08,37,15.70
2011,06,16,08,38,15.70
2011,06,16,08,39,15.70
2011,06,16,08,40,15.60
2011,06,16,08,41,15.50
2011,06,16,08,42,15.40
2011,06,16,08,43,15.30
2011,06,16,08,44,15.20
2011,06,16,08,45,15.00
2011,06,16,08,46,15.00
2011,06,16,08,47,15.00
2011,06,16,08,48,15.00
2011,06,16,08,49,15.00
2011,06,16,08,50,15.00
2011,06,16,08,51,15.00
2011,06,16,08,52,15.10
2011,06,16,08,53,15.20
2011,06,16,08,54,15.30
2011,06,16,08,55,15.30
2011,06,16,08,56,15.30
2011,06,16,08,57,15.30
2011,06,16,08,58,15.30
2011,06,16,08,59,15.40
2011,06,16,09,00,15.50
2011,06,16,09,01,15.60
2011,06,16,09,02,15.70
2011,06,16,09,03,15.70
2011,06,16,09,04,15.80
2011,06,16,09,05,15.80
2011,06,16,09,06,15.80
2011,06,16,09,07,15.80
2011,06,16,09,08,15.90
2011,06,16,09,09,16.00
2011,06,16,09,10,16.10
2011,06,16,09,11,16.20
2011,06,16,09,12,16.20
2011,06,16,09,13,16.30
2011,06,16,09,14,16.30
2011,06,16,09,15,16.30
2011,06,16,09,16,16.40
2011,06,16,09,17,16.40
2011,06,16,09,18,16.40
2011,06,16,09,19,16.40
2011,06,16,09,20,16.50
2011,06,16,09,21,16.60
2011,06,16,09,22,16.60
2011,06,16,09,23,16.60
2011,06,16,09,24,16.60
2011,06,16,09,25,16.60
2011,06,16,09,26,16.60
2011,06,16,09,27,16.60
2011,06,16,09,28,16.50
2011,06,16,09,29,16.40
2011,06,16,09,30,16.30
2011,06,16,09,31,16.30
2011,06,16,09,32,16.10
2011,06,16,09,33,15.90
2011,06,16,09,34,15.80
2011,06,16,09,35,15.80
2011,06,16,09,36,15.80
2011,06,16,09,37,15.80
2011,06,16,09,38,15.90
2011,06,16,09,39,15.90
2011,06,16,09,40,16.00
2011,06,16,09,41,16.00
2011,06,16,09,42,16.20
2011,06,16,09,43,16.20
2011,06,16,09,44,16.30
2011,06,16,09,45,16.20
2011,06,16,09,46,16.20
2011,06,16,09,47,16.10
2011,06,16,09,48,16.10
2011,06,16,09,49,16.20
2011,06,16,09,50,16.20
2011,06,16,09,51,16.20
2011,06,16,09,52,16.20
2011,06,16,09,53,16.20
2011,06,16,09,54,16.20
2011,06,16,09,55,16.10
2011,06,16,09,56,16.10
2011,06,16,09,57,16.20
2011,06,16,09,58,16.20
2011,06,16,09,59,16.30
2011,06,16,10,00,16.30
2011,06,16,10,01,16.30
2011,06,16,10,02,16.40
2011,06,16,10,03,16.20
2011,06,16,10,04,16.00
2011,06,16,10,05,15.80
2011,06,16,10,06,15.70
2011,06,16,10,07,15.50
2011,06,16,10,08,15.40
2011,06,16,10,09,15.30
2011,06,16,10,10,15.20
2011,06,16,10,11,15.20
2011,06,16,10,12,15.30
2011,06,16,10,13,15.30
2011,06,16,10,14,15.50
2011,06,16,10,15,15.60
2011,06,16,10,16,15.60
2011,06,16,10,17,15.60
2011,06,16,10,18,15.70
2011,06,16,10,19,15.70
2011,06,16,10,20,15.70
2011,06,16,10,21,15.80
2011,06,16,10,22,15.80
2011,06,16,10,23,15.70
2011,06,16,10,24,15.60
2011,06,16,10,25,15.50
2011,06,16,10,26,15.40
2011,06,16,10,27,15.40
2011,06,16,10,28,15.40
2011,06,16,10,29,15.40
2011,06,16,10,30,15.50
2011,06,16,10,31,15.50
2011,06,16,10,32,15.50
2011,06,16,10,33,15.50
2011,06,16,10,34,15.50
2011,06,16,10,35,15.60
2011,06,16,10,36,15.60
2011,06,16,10,37,15.60
2011,06,16,10,38,15.70
2011,06,16,10,39,15.70
2011,06,16,10,40,15.70
2011,06,16,10,41,15.80
2011,06,16,10,42,15.90
2011,06,16,10,43,15.90
2011,06,16,10,44,15.90
2011,06,16,10,45,15.70
2011,06,16,10,46,15.70
2011,06,16,10,47,15.70
2011,06,16,10,48,15.50
2011,06,16,10,49,15.30
2011,06,16,10,50,15.20
2011,06,16,10,51,15.00
2011,06,16,10,52,15.10
2011,06,16,10,53,15.20
2011,06,16,10,54,15.20
2011,06,16,10,55,15.20
2011,06,16,10,56,15.10
2011,06,16,10,57,15.10
2011,06,16,10,58,15.10
2011,06,16,10,59,15.00
2011,06,16,11,00,15.00
2011,06,16,11,01,15.00
2011,06,16,11,02,15.00
2011,06,16,11,03,15.10
2011,06,16,11,04,15.20
2011,06,16,11,05,15.30
2011,06,16,11,06,15.40
2011,06,16,11,07,15.40
2011,06,16,11,08,15.50
2011,06,16,11,09,15.50
2011,06,16,11,10,15.70
2011,06,16,11,11,15.80
2011,06,16,11,12,15.90
2011,06,16,11,13,15.90
2011,06,16,11,14,15.90
2011,06,16,11,15,15.90
2011,06,16,11,16,15.80
2011,06,16,11,17,15.70
2011,06,16,11,18,15.60
2011,06,16,11,19,15.60
2011,06,16,11,20,15.50
2011,06,16,11,21,15.40
2011,06,16,11,22,15.30
2011,06,16,11,23,15.30
2011,06,16,11,24,15.20
2011,06,16,11,25,15.00
2011,06,16,11,26,15.00
2011,06,16,11,27,15.00
2011,06,16,11,28,15.00
2011,06,16,11,29,15.00
2011,06,16,11,30,15.00
2011,06,16,11,31,15.00
2011,06,16,11,32,15.00
2011,06,16,11,33,15.00
2011,06,16,11,34,14.90
2011,06,16,11,35,15.00
2011,06,16,11,36,15.00
2011,06,16,11,37,15.00
2011,06,16,11,38,15.00
2011,06,16,11,39,15.00
2011,06,16,11,40,15.00
2011,06,16,11,41,15.10
2011,06,16,11,42,15.30
2011,06,16,11,43,15.40
2011,06,16,11,44,15.50
2011,06,16,11,45,15.50
2011,06,16,11,46,15.40
2011,06,16,11,47,15.30
2011,06,16,11,48,15.20
2011,06,16,11,49,15.10
2011,06,16,11,50,15.10
2011,06,16,11,51,15.10
2011,06,16,11,52,15.10
2011,06,16,11,53,15.10
2011,06,16,11,54,15.20
2011,06,16,11,55,15.20
2011,06,16,11,56,15.10
2011,06,16,11,57,15.00
2011,06,16,11,58,15.00
2011,06,16,11,59,15.00
2011,06,16,12,00,15.00
2011,06,16,12,01,15.00
2011,06,16,12,02,15.00
2011,06,16,12,03,15.20
2011,06,16,12,04,15.20
2011,06,16,12,05,15.20
2011,06,16,12,06,15.20
2011,06,16,12,07,15.20
2011,06,16,12,08,15.20
2011,06,16,12,09,15.10
2011,06,16,12,10,15.20
2011,06,16,12,11,15.30
2011,06,16,12,12,15.40
2011,06,16,12,13,15.50
2011,06,16,12,14,15.60
2011,06,16,12,15,15.70
2011,06,16,12,16,15.80
2011,06,16,12,17,15.80
2011,06,16,12,18,15.80
2011,06,16,12,19,15.70
2011,06,16,12,20,15.70
2011,06,16,12,21,15.50
2011,06,16,12,22,15.40
2011,06,16,12,23,15.30
2011,06,16,12,24,15.10
2011,06,16,12,25,15.00
2011,06,16,12,26,15.00
2011,06,16,12,27,15.00
2011,06,16,12,28,15.00
2011,06,16,12,29,15.10
2011,06,16,12,30,15.10
2011,06,16,12,31,15.20
2011,06,16,12,32,15.10
2011,06,16,12,33,15.00
2011,06,16,12,34,15.00
2011,06,16,12,35,15.00
2011,06,16,12,36,15.00
2011,06,16,12,37,15.00
2011,06,16,12,38,15.00
2011,06,16,12,39,15.00
2011,06,16,12,40,14.90
2011,06,16,12,41,14.90
2011,06,16,12,42,15.00
2011,06,16,12,43,15.00
2011,06,16,12,44,15.00
2011,06,16,12,45,15.00
2011,06,16,12,46,15.00
2011,06,16,12,47,14.90
2011,06,16,12,48,14.90
2011,06,16,12,49,15.00
2011,06,16,12,50,15.00
2011,06,16,12,51,15.00
2011,06,16,12,52,15.00
2011,06,16,12,53,15.00
2011,06,16,12,54,15.00
2011,06,16,12,55,15.00
2011,06,16,12,56,15.00
2011,06,16,12,57,15.00
2011,06,16,12,58,15.00
2011,06,16,12,59,15.00
2011,06,16,13,00,15.00
2011,06,16,13,01,15.00
2011,06,16,13,02,15.00
2011,06,16,13,03,15.00
2011,06,16,13,04,15.10
2011,06,16,13,05,15.10
2011,06,16,13,06,15.20
2011,06,16,13,07,15.20
2011,06,16,13,08,15.30
2011,06,16,13,09,15.40
2011,06,16,13,10,15.50
2011,06,16,13,11,15.50
2011,06,16,13,12,15.60
2011,06,16,13,13,15.60
2011,06,16,13,14,15.60
2011,06,16,13,15,15.50
2011,06,16,13,16,15.40
2011,06,16,13,17,15.30
2011,06,16,13,18,15.20
2011,06,16,13,19,15.20
2011,06,16,13,20,15.10
2011,06,16,13,21,15.20
2011,06,16,13,22,15.10
2011,06,16,13,23,15.00
2011,06,16,13,24,15.10
2011,06,16,13,25,15.20
2011,06,16,13,26,15.30
2011,06,16,13,27,15.20
2011,06,16,13,28,15.20
2011,06,16,13,29,15.10
2011,06,16,13,30,15.00
2011,06,16,13,31,15.00
2011,06,16,13,32,15.00
2011,06,16,13,33,15.20
2011,06,16,13,34,15.30
2011,06,16,13,35,15.40
2011,06,16,13,36,15.40
2011,06,16,13,37,15.50
2011,06,16,13,38,15.60
2011,06,16,13,39,15.60
2011,06,16,13,40,15.60
2011,06,16,13,41,15.60
2011,06,16,13,42,15.60
2011,06,16,13,43,15.50
2011,06,16,13,44,15.40
2011,06,16,13,45,15.40
2011,06,16,13,46,15.40
2011,06,16,13,47,15.30
2011,06,16,13,48,15.40
2011,06,16,13,49,15.40
2011,06,16,13,50,15.50
2011,06,16,13,51,15.50
2011,06,16,13,52,15.60
2011,06,16,13,53,15.60
2011,06,16,13,54,15.50
2011,06,16,13,55,15.50
2011,06,16,13,56,15.40
2011,06,16,13,57,15.40
2011,06,16,13,58,15.40
2011,06,16,13,59,15.50
2011,06,16,14,00,15.60
2011,06,16,14,01,15.60
2011,06,16,14,02,15.70
2011,06,16,14,03,15.80
2011,06,16,14,04,15.70
2011,06,16,14,05,15.60
2011,06,16,14,06,15.60
2011,06,16,14,07,15.50
2011,06,16,14,08,15.50
2011,06,16,14,09,15.50
2011,06,16,14,10,15.60
2011,06,16,14,11,15.60
2011,06,16,14,12,15.70
2011,06,16,14,13,15.70
2011,06,16,14,14,15.70
2011,06,16,14,15,15.70
2011,06,16,14,16,15.70
2011,06,16,14,17,15.80
2011,06,16,14,18,15.80
2011,06,16,14,19,15.80
2011,06,16,14,20,15.90
2011,06,16,14,21,16.00
2011,06,16,14,22,16.10
2011,06,16,14,23,16.10
2011,06,16,14,24,16.10
2011,06,16,14,25,16.10
2011,06,16,14,26,16.10
2011,06,16,14,27,16.20
2011,06,16,14,28,16.20
2011,06,16,14,29,16.20
2011,06,16,14,30,16.30
2011,06,16,14,31,16.30
2011,06,16,14,32,16.30
2011,06,16,14,33,16.30
2011,06,16,14,34,16.30
2011,06,16,14,35,16.40
2011,06,16,14,36,16.40
2011,06,16,14,37,16.40
2011,06,16,14,38,16.40
2011,06,16,14,39,16.50
2011,06,16,14,40,16.40
2011,06,16,14,41,16.30
2011,06,16,14,42,16.30
2011,06,16,14,43,16.30
2011,06,16,14,44,16.30
2011,06,16,14,45,16.30
2011,06,16,14,46,16.10
2011,06,16,14,47,16.10
2011,06,16,14,48,16.10
2011,06,16,14,49,16.10
2011,06,16,14,50,16.20
2011,06,16,14,51,16.30
2011,06,16,14,52,16.30
2011,06,16,14,53,16.30
2011,06,16,14,54,16.30
2011,06,16,14,55,16.30
2011,06,16,14,56,16.30
2011,06,16,14,57,16.30
2011,06,16,14,58,16.30
2011,06,16,14,59,16.30
2011,06,16,15,00,16.30
2011,06,16,15,01,16.30
2011,06,16,15,02,16.30
2011,06,16,15,03,16.30
2011,06,16,15,04,16.30
2011,06,16,15,05,16.30
2011,06,16,15,06,16.40
2011,06,16,15,07,16.50
2011,06,16,15,08,16.60
2011,06,16,15,09,16.70
2011,06,16,15,10,16.80
2011,06,16,15,11,16.80
2011,06,16,15,12,16.80
2011,06,16,15,13,16.80
2011,06,16,15,14,16.80
2011,06,16,15,15,16.70
2011,06,16,15,16,16.70
2011,06,16,15,17,16.60
2011,06,16,15,18,16.60
2011,06,16,15,19,16.50
2011,06,16,15,20,16.40
2011,06,16,15,21,16.30
2011,06,16,15,22,16.30
2011,06,16,15,23,16.30
2011,06,16,15,24,16.30
2011,06,16,15,25,16.40
2011,06,16,15,26,16.40
2011,06,16,15,27,16.30
2011,06,16,15,28,16.20
2011,06,16,15,29,16.10
2011,06,16,15,30,16.00
2011,06,16,15,31,15.90
2011,06,16,15,32,15.90
2011,06,16,15,33,15.90
2011,06,16,15,34,15.90
2011,06,16,15,35,16.00
2011,06,16,15,36,16.10
2011,06,16,15,37,16.10
2011,06,16,15,38,16.20
2011,06,16,15,39,16.20
2011,06,16,15,40,16.20
2011,06,16,15,41,16.30
2011,06,16,15,42,16.30
2011,06,16,15,43,16.40
2011,06,16,15,44,16.40
2011,06,16,15,45,16.40
2011,06,16,15,46,16.50
2011,06,16,15,47,16.50
2011,06,16,15,48,16.40
2011,06,16,15,49,16.40
2011,06,16,15,50,16.30
2011,06,16,15,51,16.30
2011,06,16,15,52,16.40
2011,06,16,15,53,16.40
2011,06,16,15,54,16.40
2011,06,16,15,55,16.40
2011,06,16,15,56,16.40
2011,06,16,15,57,16.40
2011,06,16,15,58,16.40
2011,06,16,15,59,16.40
2011,06,16,16,00,16.40
2011,06,16,16,01,16.40
2011,06,16,16,02,16.30
2011,06,16,16,03,16.20
2011,06,16,16,04,16.10
2011,06,16,16,05,15.90
2011,06,16,16,06,15.90
2011,06,16,16,07,15.80
2011,06,16,16,08,15.80
2011,06,16,16,09,15.80
2011,06,16,16,10,15.80
2011,06,16,16,11,15.90
2011,06,16,16,12,16.00
2011,06,16,16,13,16.10
2011,06,16,16,14,16.20
2011,06,16,16,15,16.20
2011,06,16,16,16,16.30
2011,06,16,16,17,16.40
2011,06,16,16,18,16.40
2011,06,16,16,19,16.50
2011,06,16,16,20,16.60
2011,06,16,16,21,16.70
2011,06,16,16,22,16.70
2011,06,16,16,23,16.80
2011,06,16,16,24,16.80
2011,06,16,16,25,16.90
2011,06,16,16,26,16.90
2011,06,16,16,27,17.00
2011,06,16,16,28,17.00
2011,06,16,16,29,17.10
2011,06,16,16,30,17.10
2011,06,16,16,31,17.00
2011,06,16,16,32,16.90
2011,06,16,16,33,16.80
2011,06,16,16,34,16.70
2011,06,16,16,35,16.70
2011,06,16,16,36,16.80
2011,06,16,16,37,16.80
2011,06,16,16,38,16.80
2011,06,16,16,39,16.80
2011,06,16,16,40,16.80
2011,06,16,16,41,16.60
2011,06,16,16,42,16.50
2011,06,16,16,43,16.40
2011,06,16,16,44,16.40
2011,06,16,16,45,16.20
2011,06,16,16,46,16.00
2011,06,16,16,47,15.90
2011,06,16,16,48,15.80
2011,06,16,16,49,15.70
2011,06,16,16,50,15.70
2011,06,16,16,51,15.70
2011,06,16,16,52,15.60
2011,06,16,16,53,15.60
2011,06,16,16,54,15.60
2011,06,16,16,55,15.70
2011,06,16,16,56,15.70
2011,06,16,16,57,15.70
2011,06,16,16,58,15.70
2011,06,16,16,59,15.60
2011,06,16,17,00,15.60
2011,06,16,17,01,15.60
2011,06,16,17,02,15.50
2011,06,16,17,03,15.50
2011,06,16,17,04,15.50
2011,06,16,17,05,15.50
2011,06,16,17,06,15.50
2011,06,16,17,07,15.50
2011,06,16,17,08,15.50
2011,06,16,17,09,15.60
2011,06,16,17,10,15.60
2011,06,16,17,11,15.50
2011,06,16,17,12,15.50
2011,06,16,17,13,15.50
2011,06,16,17,14,15.50
2011,06,16,17,15,15.40
2011,06,16,17,16,15.40
2011,06,16,17,17,15.40
2011,06,16,17,18,15.40
2011,06,16,17,19,15.40
2011,06,16,17,20,15.40
2011,06,16,17,21,15.50
2011,06,16,17,22,15.50
2011,06,16,17,23,15.50
2011,06,16,17,24,15.60
2011,06,16,17,25,15.60
2011,06,16,17,26,15.70
2011,06,16,17,27,15.70
2011,06,16,17,28,15.80
2011,06,16,17,29,15.80
2011,06,16,17,30,15.80
2011,06,16,17,31,15.90
2011,06,16,17,32,15.90
2011,06,16,17,33,15.90
2011,06,16,17,34,16.00
2011,06,16,17,35,16.00